Weather History for LKPR - May, 2013

Change the Weather History Date:

Tuesday, May 7, 2013

  Actual Average Record
Temperature  
Mean Temperature 62 °F -  
Max Temperature 70 °F 66 °F 77 °F (2000)
Min Temperature 55 °F 46 °F 37 °F (2008)
Degree Days  
Heating Degree Days 2    
Growing Degree Days 12 (Base 50)    
Moisture  
Dew Point 57 °F    
Average Humidity 85    
Maximum Humidity 100    
Minimum Humidity 61    
Precipitation  
Precipitation 0.04 in 0.10 in - ()
Sea Level Pressure  
Sea Level Pressure 29.99 in    
Wind  
Wind Speed 6 mph ()    
Max Wind Speed 18 mph    
Max Gust Speed -    
Visibility 5.9 miles    
Events Rain , Thunderstorm    
Averages and records for this station are not official NWS values.
T = Trace of Precipitation, MM = Missing Value Source: Averaged Metar Reports

Daily Weather History Graph

Daily Weather History Graph

Search for Another Location

Airport or City:

Trip Planner

Search our weather history database for the weather conditions in past years. The results will help you decide how hot, cold, wet, or windy it might be!

Date:

Astronomy

May. 07, 2013 Rise Set
Actual Time 5:28 AM CEST 8:31 PM CEST
Civil Twilight 4:50 AM CEST 9:09 PM CEST
Nautical Twilight 4:01 AM CEST 9:58 PM CEST
Astronomical Twilight 3:00 AM CEST 11:01 PM CEST
Moon 4:08 AM CEST (5/7) 6:01 PM CEST (5/7)
Length of Visible Light 16h 18m
Length of Day
15h 02m
Waning Crescent, 7% of the Moon is Illuminated
May 7
Waning Crescent
May 10
New
May 18
First Quarter
May 25
Full
May 31
Last Quarter

Hourly Weather History & Observations

Time (CEST) Temp. Dew Point Humidity Pressure Visibility Wind Dir Wind Speed Gust Speed Precip Events Conditions
12:00 AM 57.2 °F 55.4 °F 94% 30.04 in - East 5.8 mph - N/A   Clear
12:30 AM 59.0 °F 57.2 °F 94% 30.04 in 6.2 mi East 3.5 mph - N/A   Scattered Clouds
1:00 AM 57.2 °F 55.4 °F 94% 30.01 in 6.2 mi North 3.5 mph - N/A   Partly Cloudy
1:30 AM 57.2 °F 55.4 °F 94% 30.01 in 6.2 mi East 4.6 mph - N/A   Partly Cloudy
2:00 AM 58 °F 56 °F 93% 30.00 in 9 mi ENE 6.7 mph - -   Partly Cloudy
2:00 AM 59.0 °F 57.2 °F 94% 30.01 in - East 8.1 mph - N/A   Clear
2:30 AM 57.2 °F 55.4 °F 94% 30.01 in 4.3 mi NE 4.6 mph - N/A   Unknown
3:00 AM 57.2 °F 55.4 °F 94% 30.01 in 3.7 mi NE 4.6 mph - N/A   Unknown
3:30 AM 57.2 °F 55.4 °F 94% 30.01 in 5.0 mi East 4.6 mph - N/A   Unknown
4:00 AM 57.2 °F 55.4 °F 94% 30.01 in - Variable 1.2 mph - N/A   Clear
4:30 AM 55.4 °F 53.6 °F 94% 29.98 in - SE 1.2 mph - N/A   Clear
5:00 AM 55.4 °F 53.6 °F 94% 29.98 in - East 4.6 mph - N/A   Clear
5:30 AM 57.2 °F 55.4 °F 94% 30.01 in 6.2 mi ESE 5.8 mph - N/A   Partly Cloudy
5:38 AM 57.2 °F 55.4 °F 94% 30.01 in 5.6 mi ESE 5.8 mph - N/A Rain Light Rain
6:00 AM 57.2 °F 55.4 °F 94% 30.01 in 4.3 mi ESE 4.6 mph - N/A Rain Light Rain
6:08 AM 57.2 °F 55.4 °F 94% 30.01 in 2.5 mi East 4.6 mph - N/A Rain Light Rain
6:30 AM 55.4 °F 55.4 °F 100% 30.01 in 2.5 mi East 6.9 mph - N/A Rain Light Rain
7:00 AM 57.2 °F 55.4 °F 94% 30.01 in 2.8 mi East 6.9 mph - N/A Rain Light Rain
7:30 AM 57.2 °F 55.4 °F 94% 30.01 in 3.1 mi East 5.8 mph - N/A Rain Light Rain
8:00 AM 57 °F 56 °F 96% 30.00 in 3 mi East 8.9 mph - - Rain Light Rain
8:00 AM 57.2 °F 55.4 °F 94% 30.01 in 2.8 mi East 6.9 mph - N/A   Overcast
8:30 AM 57.2 °F 57.2 °F 100% 30.01 in 3.1 mi East 8.1 mph - N/A   Overcast
8:46 AM 57.2 °F 57.2 °F 100% 30.01 in 2.8 mi East 9.2 mph - N/A   Overcast
9:00 AM 59.0 °F 57.2 °F 94% 30.01 in 3.1 mi East 8.1 mph - N/A   Overcast
9:30 AM 59.0 °F 57.2 °F 94% 30.01 in 4.3 mi East 6.9 mph - N/A   Mostly Cloudy
10:00 AM 60.8 °F 59.0 °F 94% 30.01 in 5.0 mi East 8.1 mph - N/A   Mostly Cloudy
10:30 AM 60.8 °F 59.0 °F 94% 30.01 in 6.2 mi East 5.8 mph - N/A   Overcast
11:00 AM 62.6 °F 59.0 °F 88% 30.01 in 6.2 mi East 4.6 mph - N/A   Overcast
11:19 AM 62.6 °F 59.0 °F 88% 30.01 in 6.2 mi East 3.5 mph - N/A   Overcast
11:30 AM 62.6 °F 59.0 °F 88% 30.01 in 6.2 mi ENE 4.6 mph - N/A   Mostly Cloudy
12:00 PM 64.4 °F 59.0 °F 83% 30.01 in 6.2 mi NE 3.5 mph - N/A   Mostly Cloudy
12:30 PM 66.2 °F 57.2 °F 73% 30.01 in 6.2 mi East 8.1 mph - N/A   Mostly Cloudy
1:00 PM 68.0 °F 59.0 °F 73% 29.98 in 6.2 mi ESE 10.4 mph - N/A   Mostly Cloudy
1:30 PM 66.2 °F 57.2 °F 73% 29.98 in 6.2 mi SE 13.8 mph - N/A   Mostly Cloudy
2:00 PM 68 °F 58 °F 61% 29.96 in 16 mi SE 13.4 mph - -   Partly Cloudy
2:00 PM 68.0 °F 57.2 °F 68% 29.98 in 6.2 mi SE 15.0 mph - N/A   Scattered Clouds
2:30 PM 68.0 °F 59.0 °F 73% 29.98 in 6.2 mi SE 13.8 mph - N/A   Scattered Clouds
3:00 PM 68.0 °F 57.2 °F 68% 29.98 in 6.2 mi SE 16.1 mph - N/A   Scattered Clouds
3:30 PM 68.0 °F 57.2 °F 68% 29.98 in 6.2 mi SE 16.1 mph - N/A   Scattered Clouds
4:00 PM 68.0 °F 57.2 °F 68% 29.98 in 6.2 mi SE 13.8 mph - N/A   Scattered Clouds
4:30 PM 69.8 °F 57.2 °F 64% 29.95 in 6.2 mi SE 10.4 mph - N/A   Scattered Clouds
5:00 PM 69.8 °F 57.2 °F 64% 29.95 in 6.2 mi SE 13.8 mph - N/A   Scattered Clouds
5:30 PM 68.0 °F 57.2 °F 68% 29.95 in 6.2 mi SE 10.4 mph - N/A   Scattered Clouds
6:00 PM 68.0 °F 57.2 °F 68% 29.95 in 6.2 mi ESE 10.4 mph - N/A Rain Light Rain Showers
6:12 PM 68.0 °F 57.2 °F 68% 29.95 in 6.2 mi ENE 4.6 mph - N/A Thunderstorm Mostly Cloudy
6:17 PM 68.0 °F 57.2 °F 68% 29.95 in 6.2 mi SE 18.4 mph - N/A Thunderstorm Mostly Cloudy
6:30 PM 64.4 °F 57.2 °F 77% 29.95 in 6.2 mi South 11.5 mph - N/A Rain , Thunderstorm Light Rain Showers
6:48 PM 66.2 °F 57.2 °F 73% 29.95 in 6.2 mi SE 9.2 mph - N/A Thunderstorm Mostly Cloudy
7:00 PM 66.2 °F 57.2 °F 73% 29.95 in 6.2 mi SE 8.1 mph - N/A   Mostly Cloudy
7:30 PM 64.4 °F 57.2 °F 77% 29.95 in 6.2 mi SE 5.8 mph - N/A Rain , Thunderstorm Light Rain Showers
8:00 PM 63 °F 57 °F 75% 29.94 in 16 mi SW 11.2 mph - - Rain Light Rain Showers
8:00 PM 62.6 °F 57.2 °F 82% 29.95 in 6.2 mi South 6.9 mph - N/A Rain , Thunderstorm Light Rain Showers
8:30 PM 60.8 °F 57.2 °F 88% 29.95 in 6.2 mi SE 4.6 mph - N/A   Scattered Clouds
9:00 PM 62.6 °F 57.2 °F 82% 29.98 in 6.2 mi ESE 6.9 mph - N/A   Mostly Cloudy
9:30 PM 60.8 °F 57.2 °F 88% 29.98 in 6.2 mi ESE 4.6 mph - N/A   Mostly Cloudy
10:00 PM 60.8 °F 57.2 °F 88% 29.98 in 6.2 mi SE 6.9 mph - N/A   Scattered Clouds
10:30 PM 60.8 °F 57.2 °F 88% 29.98 in 6.2 mi ESE 6.9 mph - N/A   Partly Cloudy
11:00 PM 60.8 °F 55.4 °F 82% 29.98 in 6.2 mi SE 8.1 mph - N/A   Partly Cloudy
11:30 PM 59.0 °F 55.4 °F 88% 29.98 in 6.2 mi SE 4.6 mph - N/A   Mostly Cloudy